Вернуться в каталог

STARLINK-11146

АктивенСвязьVLEO
NORAD 60729·PAYLOAD·🇺🇸 United States

Запущен Aug 28, 2024 с Cape Canaveral Space Force Station

Loading…

Ближайшие Пролёты (ближайшие 24 часа)

TLE

СвежийSource: CelesTrak SupGP

Эпоха: Sep 15, 2026, 01:55 UTC

1 60729C 24152K   26258.08034722  .00040556  00000+0  33376-3 0  2589
2 60729  53.1577 262.4205 0001239  83.6874 277.4958 15.69711672    14

Отслеживайте STARLINK-11146 в реальном времени с AllMySat

Download on the App Store